This is the latest recevied weather packets stored in our database for station/object W7BTL. If no packets are shown the sender has not sent any weather packets the latest 10 day(s).
| Time | Temp. | Humidity | Pressure | Rain* | Wind** | Luminosity | Snow |
|---|---|---|---|---|---|---|---|
| 1788391886 | 28.89° C | 39% | 1013.3 hPa | 0 mm | - | 407 W/m² | - |
| 1788391586 | 28.89° C | 39% | 1013.5 hPa | 0 mm | - | 438 W/m² | - |
| 1788391285 | 28.89° C | 39% | 1013.6 hPa | 0 mm | - | 459 W/m² | - |
| 1788390984 | 28.89° C | 39% | 1013.6 hPa | 0 mm | - | 483 W/m² | - |
| 1788390684 | 29.44° C | 38% | 1013.5 hPa | 0 mm | - | 504 W/m² | - |
| 1788390380 | 28.89° C | 38% | 1013.4 hPa | 0 mm | - | 525 W/m² | - |
| 1788390078 | 28.89° C | 39% | 1013.6 hPa | 0 mm | - | 548 W/m² | - |
| 1788389774 | 29.44° C | 38% | 1013.6 hPa | 0 mm | - | 567 W/m² | - |
| 1788389473 | 30° C | 38% | 1013.6 hPa | 0 mm | - | 587 W/m² | - |
| 1788389172 | 29.44° C | 39% | 1013.5 hPa | 0 mm | - | 605 W/m² | - |
| 1788388868 | 29.44° C | 40% | 1013.6 hPa | 0 mm | - | 627 W/m² | - |
| 1788388564 | 30° C | 40% | 1013.6 hPa | 0 mm | - | 646 W/m² | - |
| 1788388263 | 30° C | 39% | 1014 hPa | 0 mm | - | 667 W/m² | - |
| 1788387962 | 30° C | 42% | 1013.8 hPa | 0 mm | - | 687 W/m² | - |
| 1788387661 | 29.44° C | 42% | 1013.9 hPa | 0 mm | - | 706 W/m² | - |
| 1788387355 | 29.44° C | 43% | 1013.9 hPa | 0 mm | - | 720 W/m² | - |
| 1788387050 | 29.44° C | 44% | 1014.1 hPa | 0 mm | - | 741 W/m² | - |
| 1788386745 | 29.44° C | 43% | 1013.9 hPa | 0 mm | - | 751 W/m² | - |
| 1788386440 | 30° C | 43% | 1014.1 hPa | 0 mm | - | 775 W/m² | - |
| 1788386136 | 30° C | 43% | 1014.1 hPa | 0 mm | - | 783 W/m² | - |
| 1788385831 | 29.44° C | 43% | 1014.2 hPa | 0 mm | - | 795 W/m² | - |
| 1788385526 | 28.89° C | 45% | 1014.4 hPa | 0 mm | - | 814 W/m² | - |
| 1788385225 | 29.44° C | 44% | 1014.3 hPa | 0 mm | - | 819 W/m² | - |
| 1788384921 | 30° C | 43% | 1014.4 hPa | 0 mm | - | 840 W/m² | - |
| 1788384620 | 30.56° C | 42% | 1014.4 hPa | 0 mm | - | 853 W/m² | - |
* Rain latest hour (hover to see other rain measurements)
** Current wind speed in m/s (hover to see current wind gust speed)